Theta_e
306 306 305 304 303 301 297 297 289 297 300 287 288 288 291 292 292 294 292 293 291 289 291 289 290 290 291 293 294 290 294 290 285 287 291 292 291 289 289 284 282 285 285 285
303 305 305 304 304 302 300 293 290 297 297 284 285 290 291 291 290 291 291 290 292 292 290 286 289 290 292 294 293 291 292 287 282 283 287 290 288 289 290 289 288 283 281 283
304 305 305 304 303 302 299 293 286 287 289 291 290 287 287 288 293 292 293 291 292 290 289 291 288 288 291 292 292 290 291 288 285 280 283 288 284 286 288 286 283 283 283 285
301 304 304 304 303 302 297 294 291 293 284 287 290 290 289 287 287 292 293 290 290 289 285 287 287 289 289 291 290 290 290 283 285 284 285 285 285 285 285 283 284 280 283 283
300 304 304 303 303 301 294 291 291 293 291 291 288 289 288 288 289 290 288 288 290 291 287 287 286 288 288 286 289 288 288 283 284 282 284 284 281 284 284 284 284 284 284 283
300 303 303 302 302 300 293 298 299 294 290 290 287 288 289 289 291 291 292 291 290 289 289 291 293 293 291 290 289 287 286 285 281 278 281 281 278 282 284 285 286 286 282 288
300 303 302 301 301 300 300 299 297 292 287 288 287 289 291 290 291 288 291 293 290 291 294 294 292 291 290 289 288 290 284 283 282 280 280 273 284 289 287 286 287 289 288 288
302 302 302 301 301 301 299 299 297 293 288 288 289 290 290 291 292 291 290 291 294 295 292 286 283 283 283 284 286 286 287 285 282 279 278 282 283 285 283 281 283 284 284 286
302 301 301 301 301 300 299 299 301 296 290 288 292 290 291 289 288 289 290 294 297 294 289 286 279 277 281 280 283 288 286 288 284 281 277 274 282 286 289 287 280 284 284 284
300 300 300 300 300 300 300 298 303 297 291 293 293 290 290 292 290 288 290 290 290 293 287 283 282 281 285 280 279 280 282 283 281 281 279 280 284 287 289 277 278 283 282 282
300 299 299 300 300 301 300 297 303 298 294 292 294 294 292 292 292 288 291 288 288 287 284 284 283 283 285 284 283 283 282 281 280 282 279 276 287 287 280 281 284 283 282 282
300 299 300 301 301 301 300 296 300 300 296 292 297 296 297 295 295 293 292 290 289 292 287 288 288 285 286 284 280 287 282 284 284 282 281 283 286 283 284 285 284 283 282 282
299 299 300 300 301 301 299 298 299 298 294 293 294 292 297 299 299 300 290 293 292 291 296 294 291 285 289 283 283 284 286 289 284 283 283 283 283 285 285 285 283 283 283 282
299 300 300 300 301 301 299 299 300 299 295 289 289 297 294 299 299 298 299 296 297 295 295 293 292 287 292 288 288 288 289 288 284 281 282 284 283 284 284 283 283 282 282 282
300 300 300 300 300 299 301 300 301 300 296 288 288 294 296 297 298 296 297 296 294 292 290 291 290 292 290 290 290 286 290 286 283 284 287 286 283 284 284 283 282 282 282 281
299 299 298 299 299 299 300 293 300 301 300 292 286 293 293 296 297 296 295 296 295 296 292 291 291 293 291 286 284 285 287 289 289 285 289 287 285 285 285 283 282 283 282 282
299 298 298 298 297 300 296 293 296 296 302 294 286 286 292 295 295 296 295 296 295 295 293 291 291 291 292 289 284 286 287 287 287 288 287 282 284 282 285 284 284 283 283 283
298 298 298 299 298 297 295 297 297 298 299 296 286 285 288 294 291 291 296 294 296 293 293 293 291 290 292 285 286 286 287 286 286 287 289 287 286 285 284 284 284 282 281 281
297 296 297 298 297 295 294 295 296 302 297 290 289 284 282 294 291 293 293 295 289 293 291 290 290 288 284 287 285 285 286 286 285 287 287 286 284 284 283 283 283 282 281 281
294 295 294 290 294 294 296 296 295 294 294 294 289 292 284 291 291 290 290 292 288 283 288 291 287 286 289 289 289 288 287 288 288 284 283 283 283 283 283 283 283 283 282 281
294 292 288 295 294 296 293 288 287 288 285 290 290 290 287 294 287 287 291 287 288 281 285 285 283 282 286 288 288 290 289 288 288 289 288 288 286 285 284 283 283 282 281 280
294 294 296 297 293 289 284 283 285 284 282 288 288 290 291 292 295 289 289 284 286 278 290 284 279 283 286 286 287 287 288 288 288 289 288 288 286 285 284 282 281 280 278 275
297 293 287 288 286 280 280 276 281 282 286 288 290 288 291 292 293 288 286 280 282 289 282 281 283 284 285 286 287 285 287 287 287 288 287 286 284 284 282 280 277 276 275 275
289 284 278 282 280 282 283 285 286 286 288 290 290 287 289 291 286 286 280 284 285 279 278 278 285 283 284 285 286 285 283 284 284 283 282 281 279 278 277 276 275 273 272 272
285 285 278 280 284 286 285 287 286 286 291 291 290 290 290 286 282 283 281 278 277 281 282 284 285 284 283 283 283 282 281 281 280 279 277 276 275 274 274 274 275 274 272 272
286 285 282 285 285 283 285 286 285 290 291 293 292 285 284 282 284 280 278 279 279 283 283 284 284 282 282 282 281 281 280 279 278 277 276 275 273 274 275 274 272 272 272 271
284 283 285 287 286 284 285 289 289 295 291 285 287 280 278 285 281 279 283 282 283 282 283 284 283 282 281 281 279 278 278 278 277 277 276 275 276 274 273 272 273 274 274 274
Wind_Speed
23 21 21 20 19 15 6 5 4 7 6 4 3 9 5 3 9 9 8 7 7 8 9 9 6 9 3 3 6 16 9 6 7 12 4 4 10 10 4 3 6 8 9 1
23 24 22 22 21 18 5 4 4 3 2 7 7 10 12 9 9 11 8 8 8 6 12 7 2 6 4 2 5 9 9 8 8 8 8 7 8 6 7 6 5 11 10 2
19 24 24 24 20 19 4 5 5 3 3 4 10 18 12 14 13 8 7 3 5 9 10 9 8 7 4 3 3 3 3 6 8 6 3 3 6 9 8 6 5 10 11 9
23 27 24 22 22 19 3 4 6 11 8 9 13 13 10 16 10 13 12 6 11 10 6 9 9 10 12 6 4 4 6 7 6 2 2 1 2 5 7 8 8 6 10 11
22 29 25 23 22 22 3 3 4 7 5 19 20 13 12 18 16 14 12 8 8 12 5 4 10 9 10 7 6 5 2 3 5 8 4 6 8 9 11 11 11 13 13 11
12 25 23 21 21 21 3 6 5 7 7 16 16 14 16 16 11 4 4 7 8 11 6 3 3 3 3 3 9 7 5 4 5 7 2 4 9 6 8 10 10 7 9 10
25 26 24 22 23 21 0 1 5 5 6 13 15 18 14 12 16 6 6 14 8 8 7 9 8 7 6 6 4 5 5 6 3 1 4 6 8 9 4 7 7 9 7 10
25 25 23 23 22 24 4 4 2 3 5 13 15 15 14 8 8 9 8 5 7 11 10 7 9 7 5 4 4 5 6 5 3 4 8 8 7 6 3 4 4 6 6 7
25 22 20 21 20 18 7 7 6 5 4 8 14 12 14 11 10 8 7 7 6 6 4 5 6 6 6 7 6 5 4 3 4 5 4 4 7 6 6 3 4 6 7 8
23 21 18 16 16 15 7 3 6 4 2 4 1 5 9 6 8 7 11 8 6 4 5 6 4 4 2 8 8 6 6 3 7 6 5 6 1 6 3 5 6 6 7 8
20 20 18 15 15 15 7 4 6 6 2 6 5 3 5 3 4 6 10 6 3 6 7 6 4 3 4 4 4 5 7 7 5 4 4 4 10 1 4 4 5 5 7 9
18 17 16 16 17 18 12 5 4 5 3 6 9 10 9 7 8 5 10 3 10 3 6 3 3 3 3 7 6 3 2 3 3 5 5 5 7 8 4 3 6 6 7 8
15 15 15 14 14 19 18 2 4 4 6 7 5 6 8 8 5 4 4 2 5 4 3 1 1 3 5 5 4 6 4 5 3 7 6 6 7 7 8 7 8 8 9 9
12 11 12 13 14 15 16 6 3 4 3 5 6 5 6 5 5 3 4 9 4 6 5 2 2 2 2 4 4 1 2 8 7 5 7 8 6 7 8 9 10 10 9 8
12 12 11 13 14 14 6 5 2 4 4 5 7 10 8 7 7 9 8 7 7 5 3 3 2 4 3 2 2 5 1 4 3 2 13 5 10 9 9 9 9 8 10 9
16 17 17 15 11 8 6 2 2 3 5 4 5 5 5 5 7 8 7 4 2 1 3 2 3 4 2 3 2 2 4 4 5 4 8 12 13 11 10 10 9 8 8 8
13 9 7 9 9 2 1 2 4 5 4 3 6 6 4 1 1 2 3 4 3 4 2 2 2 4 4 1 3 8 7 8 12 14 15 12 14 8 11 12 11 10 9 8
15 15 15 14 14 14 5 5 5 6 2 2 3 4 5 3 3 3 2 2 1 3 2 1 1 4 2 2 8 10 11 12 13 10 0 13 14 13 12 11 11 11 9 8
13 10 7 4 2 2 4 7 8 1 3 2 3 7 4 2 3 1 3 3 2 1 1 2 3 4 3 4 13 12 14 10 11 9 13 16 14 13 12 11 10 9 9 8
7 4 2 3 4 3 6 4 1 1 2 2 2 4 5 4 3 2 3 2 1 3 2 3 3 0 6 4 12 11 12 9 13 13 14 14 12 11 11 10 9 9 9 9
2 2 3 4 0 3 0 2 2 3 3 3 3 7 8 5 4 3 3 2 1 3 4 3 4 3 7 7 11 11 11 12 11 10 12 11 12 11 10 9 9 9 10 9
4 6 4 2 1 2 3 3 2 3 4 4 7 7 6 4 1 3 2 2 2 2 2 2 3 5 10 10 11 11 10 12 10 10 11 10 10 10 10 10 10 10 10 9
3 2 3 1 1 3 3 5 3 5 5 4 7 6 3 4 2 3 2 3 1 2 3 3 4 8 9 11 11 11 8 9 9 11 12 12 11 10 10 11 9 10 10 8
2 2 4 2 3 3 2 4 6 3 2 7 7 4 2 1 3 1 3 2 2 3 4 3 5 10 10 9 10 12 10 10 11 12 13 13 12 11 10 10 9 9 9 8
3 3 3 3 3 3 4 4 5 2 4 6 5 3 3 2 3 2 2 3 4 4 2 3 6 11 10 10 10 11 10 10 10 11 11 11 11 11 11 9 9 8 8 8
3 4 3 4 6 5 5 7 6 3 3 3 3 3 3 2 4 3 4 3 2 4 3 4 8 10 10 10 9 9 9 10 10 10 11 11 10 11 11 10 8 7 8 8
2 3 4 4 6 6 4 3 4 2 2 2 1 2 2 2 2 3 2 2 3 3 4 4 7 10 10 10 10 10 10 10 11 11 11 11 11 11 11 11 9 9 8 7
Wind_Direction
220 191 183 174 182 198 225 202 188 152 160 186 209 225 213 308 212 208 228 273 248 246 228 252 226 227 84 42 226 194 191 277 213 210 171 217 277 288 256 269 211 238 282 18
234 187 182 178 184 199 188 171 118 145 218 212 198 233 225 216 211 216 211 228 223 215 232 239 211 218 70 120 247 172 170 213 222 192 197 205 240 239 293 306 280 278 288 17
205 197 180 174 186 206 254 208 151 148 217 272 233 205 218 212 218 231 217 206 192 223 209 236 190 150 171 172 146 12 297 259 254 277 6 58 187 205 218 205 269 278 273 283
214 209 184 181 181 192 223 235 225 171 174 207 232 208 217 213 206 213 204 189 215 200 201 220 192 154 144 162 137 199 221 228 251 333 36 9 273 221 214 241 249 265 290 303
221 194 183 183 184 173 215 237 214 189 214 198 210 210 220 212 196 189 197 217 199 192 204 220 175 171 176 163 185 207 198 221 240 226 239 260 266 254 251 261 269 267 278 283
215 177 180 181 185 168 195 230 254 235 221 189 197 204 222 208 193 146 225 184 218 168 202 114 106 120 107 160 187 188 194 182 205 234 187 264 253 281 290 279 251 291 278 2
195 187 174 177 175 197 174 330 272 212 216 184 196 201 203 205 196 139 175 228 194 102 121 117 114 114 128 123 115 174 195 187 179 175 188 226 75 62 14 341 349 6 338 360
190 175 170 173 181 193 206 289 305 268 232 186 183 194 197 174 132 188 143 72 77 156 173 153 147 157 160 146 175 183 206 190 182 196 217 104 160 54 40 14 63 48 335 337
171 162 164 174 182 191 224 255 294 280 283 173 182 187 172 159 146 121 115 125 140 181 212 215 220 190 167 160 143 159 152 286 243 196 252 238 80 36 40 59 220 26 357 325
158 161 167 170 179 189 202 265 262 282 328 63 343 172 176 181 173 157 150 149 158 215 191 209 218 174 312 156 168 171 176 193 226 200 241 104 228 346 48 244 53 25 17 351
161 163 174 179 182 195 165 251 235 265 175 57 40 10 118 151 196 163 138 143 215 174 204 209 170 226 174 123 359 158 182 186 198 227 234 187 357 130 284 26 64 69 64 58
155 169 180 187 195 176 157 244 190 234 292 89 86 70 43 22 0 79 180 17 155 129 232 254 128 185 141 158 162 155 221 14 54 4 52 88 47 75 74 46 90 81 87 78
163 173 177 165 178 169 190 188 157 179 133 138 126 37 33 28 24 336 196 129 112 184 327 78 14 140 177 188 115 136 152 157 95 185 133 118 102 92 80 82 97 93 92 88
160 167 156 158 168 181 200 173 206 265 153 115 79 70 52 357 77 78 46 100 117 129 211 169 183 125 305 69 106 65 97 153 132 78 131 124 112 109 112 108 105 103 93 100
150 139 145 150 159 173 198 131 210 298 285 117 115 101 46 73 85 92 107 130 164 176 156 151 115 88 113 82 159 124 202 142 212 125 153 73 129 132 131 126 119 124 118 114
125 123 121 127 138 188 151 101 100 351 112 129 128 105 99 92 86 86 77 78 65 73 92 101 84 83 211 155 116 124 97 111 151 113 99 108 129 127 128 127 126 124 113 113
122 114 128 147 168 200 95 69 47 335 283 105 131 136 134 318 169 82 86 64 55 9 98 65 96 145 265 123 155 158 132 104 111 121 118 121 143 136 136 135 126 129 125 126
113 107 101 105 114 133 123 50 10 303 116 140 124 92 156 227 179 116 313 96 128 23 63 156 215 138 257 156 130 147 126 135 135 145 151 135 127 135 130 135 138 137 137 133
126 124 142 142 9 92 78 339 304 348 331 113 159 155 145 184 77 153 149 306 107 9 211 180 260 140 219 118 155 162 156 156 143 133 127 136 139 139 144 148 154 143 142 140
156 223 101 93 57 322 250 191 100 30 91 9 109 86 132 133 174 108 135 301 167 191 124 96 278 155 107 111 149 161 166 153 157 147 151 147 147 152 151 155 154 147 142 139
173 91 75 85 218 211 43 107 172 164 128 117 123 142 144 173 165 135 331 148 186 240 120 251 188 203 152 137 156 164 151 148 162 163 156 157 155 153 149 142 133 134 136 131
73 94 107 144 175 145 115 108 143 216 117 166 152 122 118 120 273 100 204 197 222 267 163 239 242 101 134 134 135 119 135 144 146 155 151 151 141 137 137 137 133 124 113 115
154 130 92 219 17 141 200 150 159 137 130 182 139 128 118 152 88 60 151 188 175 185 225 227 56 136 145 142 126 117 126 133 136 127 130 124 123 120 133 128 114 132 120 119
72 106 91 353 120 99 51 44 73 64 171 135 105 87 76 75 74 239 186 77 235 251 245 94 127 150 148 146 143 136 130 120 120 115 114 119 122 113 109 128 126 128 130 126
52 22 59 68 80 69 71 94 108 21 137 135 131 122 113 104 121 168 103 181 230 237 31 68 109 131 138 134 124 128 127 124 123 125 130 131 129 129 125 127 130 122 126 128
64 34 133 135 124 114 104 102 117 151 129 132 115 155 128 164 137 166 204 262 263 72 60 97 130 135 144 135 127 128 128 129 128 128 132 130 131 136 126 120 124 134 137 133
34 77 343 36 66 69 64 64 74 157 148 95 157 134 102 147 214 182 174 333 49 85 100 117 138 149 139 131 126 130 133 137 136 133 134 133 128 130 137 137 146 150 138 141